| time (UTC) | temp C | wind direction | speed KPH | gust KPH | rain 1hr cm | rain 24hr cm | rain mn cm | humidity % | barometer mb |
| 20260504032144 | 12 | 254 | 4.8 | 9.7 | 0.00 | 0.00 | 0.00 | 63 | 1012.6 |
| 20260504030640 | 12 | 244 | 9.7 | 11.3 | 0.00 | 0.00 | 0.00 | 67 | 1012.6 |
| 20260504025136 | 12 | 257 | 9.7 | 12.9 | 0.00 | 0.00 | 0.00 | 65 | 1012.5 |
| 20260504023632 | 12 | 253 | 9.7 | 11.3 | 0.00 | 0.00 | 0.00 | 65 | 1012.4 |
| 20260504022132 | 12 | 245 | 6.4 | 11.3 | 0.00 | 0.00 | 0.00 | 63 | 1012.3 |
| 20260504020630 | 13 | 237 | 6.4 | 14.5 | 0.00 | 0.00 | 0.00 | 54 | 1012.5 |
| 20260504015131 | 13 | 236 | 8.0 | 12.9 | 0.00 | 0.00 | 0.00 | 58 | 1012.4 |
| 20260504013627 | 13 | 254 | 6.4 | 8.0 | 0.00 | 0.00 | 0.00 | 57 | 1012.3 |
| 20260504012125 | 13 | 255 | 4.8 | 9.7 | 0.00 | 0.00 | 0.00 | 45 | 1011.9 |
| 20260504010620 | 13 | 239 | 3.2 | 9.7 | 0.00 | 0.00 | 0.00 | 44 | 1011.8 |
| 20260504005115 | 13 | 237 | 3.2 | 6.4 | 0.00 | 0.00 | 0.00 | 45 | 1011.7 |
| 20260504003613 | 13 | 261 | 6.4 | 9.7 | 0.00 | 0.00 | 0.00 | 47 | 1011.5 |
| 20260504002110 | 14 | 273 | 6.4 | 11.3 | 0.00 | 0.00 | 0.00 | 46 | 1011.4 |
| 20260504000606 | 14 | 242 | 8.0 | 9.7 | 0.00 | 0.00 | 0.00 | 41 | 1011.2 |
| 20260503235104 | 15 | 258 | 9.7 | 9.7 | 0.00 | 0.00 | 0.00 | 38 | 1010.9 |
| 20260503233602 | 15 | 244 | 11.3 | 19.3 | 0.00 | 0.00 | 0.00 | 42 | 1010.7 |
| 20260503232058 | 16 | 259 | 4.8 | 19.3 | 0.00 | 0.00 | 0.00 | 29 | 1010.5 |
| 20260503230555 | 16 | 81 | 0.0 | 16.1 | 0.00 | 0.00 | 0.00 | 28 | 1010.5 |
| 20260503225050 | 16 | 321 | 3.2 | 11.3 | 0.00 | 0.00 | 0.00 | 28 | 1010.6 |
| 20260503223550 | 17 | 340 | 9.7 | 12.9 | 0.00 | 0.00 | 0.00 | 26 | 1010.4 |
| 20260503222047 | 16 | 1 | 6.4 | 22.5 | 0.00 | 0.00 | 0.00 | 26 | 1010.4 |
| 20260503220543 | 16 | 4 | 4.8 | 32.2 | 0.00 | 0.00 | 0.00 | 26 | 1010.6 |
| 20260503215040 | 16 | 324 | 6.4 | 27.4 | 0.00 | 0.00 | 0.00 | 26 | 1010.7 |
| 20260503213538 | 16 | 350 | 11.3 | 30.6 | 0.00 | 0.00 | 0.00 | 26 | 1010.5 |
| 20260503212036 | 16 | 341 | 12.9 | 22.5 | 0.00 | 0.00 | 0.00 | 27 | 1010.3 |
| 20260503210531 | 16 | 270 | 6.4 | 22.5 | 0.00 | 0.00 | 0.00 | 28 | 1010.4 |
| 20260503205026 | 16 | 15 | 9.7 | 24.1 | 0.00 | 0.00 | 0.00 | 27 | 1010.0 |
| 20260503203522 | 16 | 290 | 4.8 | 14.5 | 0.00 | 0.00 | 0.00 | 28 | 1010.3 |
| 20260503202021 | 15 | 265 | 14.5 | 19.3 | 0.00 | 0.00 | 0.00 | 28 | 1010.4 |
| 20260503200518 | 16 | 289 | 17.7 | 19.3 | 0.00 | 0.00 | 0.00 | 29 | 1010.6 |
| 20260503195014 | 15 | 342 | 12.9 | 29.0 | 0.00 | 0.00 | 0.00 | 29 | 1010.9 |
| 20260503193514 | 15 | 337 | 14.5 | 20.9 | 0.00 | 0.00 | 0.00 | 30 | 1010.9 |
| 20260503192014 | 15 | 101 | 4.8 | 25.7 | 0.00 | 0.00 | 0.00 | 30 | 1010.9 |
| 20260503190510 | 15 | 295 | 12.9 | 20.9 | 0.00 | 0.00 | 0.00 | 31 | 1011.0 |
| 20260503185009 | 15 | 12 | 9.7 | 9.7 | 0.00 | 0.00 | 0.00 | 32 | 1011.1 |
| 20260503183504 | 14 | 320 | 14.5 | 27.4 | 0.00 | 0.00 | 0.00 | 34 | 1011.5 |
| 20260503182003 | 14 | 242 | 6.4 | 17.7 | 0.00 | 0.00 | 0.00 | 34 | 1011.6 |
| 20260503180500 | 13 | 282 | 11.3 | 25.7 | 0.00 | 0.00 | 0.00 | 35 | 1011.6 |
| 20260503174956 | 12 | 343 | 8.0 | 30.6 | 0.00 | 0.00 | 0.00 | 36 | 1011.5 |
| 20260503173451 | 13 | 7 | 6.4 | 24.1 | 0.00 | 0.00 | 0.00 | 37 | 1011.5 |
| 20260503171948 | 12 | 261 | 4.8 | 20.9 | 0.00 | 0.00 | 0.00 | 37 | 1011.5 |
| 20260503170444 | 12 | 242 | 14.5 | 16.1 | 0.00 | 0.00 | 0.00 | 40 | 1011.7 |
| 20260503150420 | 11 | 326 | 9.7 | 20.9 | 0.00 | 0.00 | 0.00 | 35 | 1011.9 |
| 20260503130356 | 9 | 317 | 11.3 | 20.9 | 0.00 | 0.00 | 0.00 | 50 | 1012.3 |
| 20260503110337 | 7 | 3 | 12.9 | 24.1 | 0.00 | 0.00 | 0.00 | 53 | 1011.4 |
| 20260503090320 | 8 | 350 | 9.7 | 9.7 | 0.00 | 0.00 | 0.00 | 50 | 1010.2 |
| 20260503080311 | 9 | 312 | 9.7 | 20.9 | 0.00 | 0.00 | 0.00 | 48 | 1010.1 |
| 20260503071757 | 10 | 350 | 9.7 | 14.5 | 0.00 | 0.00 | 0.00 | 46 | 1010.0 |
| 20260503070255 | 10 | 1 | 4.8 | 12.9 | 0.00 | 0.00 | 0.00 | 45 | 1010.1 |
| 20260503060250 | 11 | 54 | 3.2 | 11.3 | 0.00 | 0.00 | 0.00 | 44 | 1010.3 |
| 20260503054749 | 11 | 17 | 6.4 | 11.3 | 0.00 | 0.00 | 0.00 | 45 | 1010.1 |
| 20260503053248 | 11 | 39 | 3.2 | 17.7 | 0.00 | 0.00 | 0.00 | 44 | 1010.4 |
| 20260503051748 | 11 | 21 | 6.4 | 16.1 | 0.00 | 0.00 | 0.00 | 41 | 1010.6 |
| 20260503050244 | 11 | 333 | 4.8 | 17.7 | 0.00 | 0.00 | 0.00 | 40 | 1010.7 |
| 20260503044741 | 12 | 337 | 16.1 | 16.1 | 0.00 | 0.00 | 0.00 | 39 | 1010.8 |
| 20260503043239 | 12 | 349 | 9.7 | 20.9 | 0.00 | 0.00 | 0.00 | 38 | 1010.8 |
| 20260503041739 | 12 | 357 | 11.3 | 20.9 | 0.00 | 0.00 | 0.00 | 37 | 1011.0 |
| 20260503040238 | 12 | 351 | 8.0 | 19.3 | 0.00 | 0.00 | 0.00 | 37 | 1010.9 |
| 20260503034735 | 12 | 332 | 11.3 | 20.9 | 0.00 | 0.00 | 0.00 | 37 | 1011.0 |
| 20260503033232 | 12 | 315 | 9.7 | 16.1 | 0.00 | 0.00 | 0.00 | 36 | 1010.7 |